Regional Weather Roundup
Issued by NWS

Home | Current Version | Previous Version | Graphics & Text | Print | Product List | Glossary On
Versions: 1 2 3 4 5 6 7 8 9 10 11 12 13 14 15 16 17 18 19 20 21 22 23 24 25 26 27 28 29 30 31 32 33 34 35 36 37 38 39 40 41 42 43 44 45 46 47 48 49 50
000
ASUS43 KFSD 161810
RWRSD

WEATHER ROUNDUP FOR SOUTH DAKOTA
NATIONAL WEATHER SERVICE SIOUX FALLS SD
100 PM CDT WED APR 16 2014

NOTE: "FAIR" INDICATES FEW OR NO CLOUDS BELOW 12,000 FEET WITH NO
SIGNIFICANT WEATHER AND/OR OBSTRUCTIONS TO VISIBILITY.


SDZ001>005-009-010-012>017-161900-
NORTHWEST AND NORTH CENTRAL SOUTH DAKOTA

CITY           SKY/WX    TMP DP  RH WIND       PRES   REMARKS
BUFFALO          N/A     38  22  52 N14G20    29.93R
FAITH            N/A     37  24  59 NE17G24   29.97R
MOBRIDGE       CLOUDY    33  24  69 N15       29.98R WCI  23
$$

SDZ012>016-024>037-041>051-057-063-072>074-161900-
SOUTHWEST AND SOUTH CENTRAL SOUTH DAKOTA

CITY           SKY/WX    TMP DP  RH WIND       PRES   REMARKS
RAPID CTY ARPT CLOUDY    41  29  62 N22G32    29.95R
PIERRE         CLOUDY    33  27  78 N21       29.94R WCI  21
CUSTER         PTSUNNY   38  23  55 N10G18    29.89R
ELLSWORTH AFB  CLOUDY    39  28  63 N18G26    29.96R
PHILIP         CLOUDY    33  28  81 N13       29.98R WCI  24
PINE RIDGE     CLOUDY    36  32  85 N12G22    29.94R
SPEARFISH      PTSUNNY   39  30  70 N13       29.97R
WINNER         CLOUDY    34  29  82 NW21G28   29.88R WCI  22
$$

SDZ004>011-016>023-039-040-161900-
NORTHEAST SOUTH DAKOTA

CITY           SKY/WX    TMP DP  RH WIND       PRES   REMARKS
ABERDEEN       CLOUDY    31  26  82 NE23G30   29.95R WCI  18
WATERTOWN      HVY SNOW  27  25  92 NE23G33   29.81S VSB 1/4 WCI  12
SISSETON         N/A     29  27  92 E21       29.93S WCI  16
$$

SDZ017-020-022-023-036>040-048>070-161900-
SOUTHEAST SOUTH DAKOTA

CITY           SKY/WX    TMP DP  RH WIND       PRES   REMARKS
SIOUX FALLS    LGT RAIN  47  34  60 SE5       29.65S
HURON          LGT SNOW  31  27  85 N20G30    29.83R FOG     WCI  19
CHAMBERLAIN      N/A     32  27  81 N24G31    29.87  WCI  19
MITCHELL       CLOUDY    35  32  88 N23G29    29.76R FOG     WCI  23
YANKTON        FAIR      55  36  47 S15G22    29.60F
$$

ABBREVIATIONS USED IN REMARKS
   TC - TEMPERATURE IN CELSIUS
  WCI - WIND CHILL INDEX
   HX - HEAT INDEX
  VSB - VISIBILITY




USA.gov is the U.S. government's official web portal to all federal, state and local government web resources and services.